TimeMDT,TemperatureF,Dew PointF,Humidity,Sea Level PressureIn,VisibilityMPH,Wind Direction,Wind SpeedMPH,Gust SpeedMPH,PrecipitationIn,Events,Conditions,WindDirDegrees,DateUTC
12:53 AM,54.0,46.9,77,30.00,10.0,SW,5.8,-,N/A,,Clear,220,2013-08-22 06:53:00
1:53 AM,53.1,48.9,86,30.00,10.0,South,3.5,-,N/A,,Clear,190,2013-08-22 07:53:00
2:53 AM,52.0,48.9,89,30.00,10.0,South,8.1,-,N/A,,Clear,180,2013-08-22 08:53:00
3:53 AM,50.0,48.0,93,30.01,9.0,South,6.9,-,N/A,,Clear,180,2013-08-22 09:53:00
4:53 AM,52.0,48.0,86,30.01,9.0,South,9.2,-,N/A,,Clear,170,2013-08-22 10:53:00
5:53 AM,52.0,48.0,86,30.03,10.0,SE,4.6,-,N/A,,Clear,130,2013-08-22 11:53:00
6:53 AM,55.9,51.1,84,30.03,8.0,SSE,8.1,-,N/A,,Clear,150,2013-08-22 12:53:00
7:53 AM,60.1,52.0,75,30.05,10.0,SSE,13.8,-,N/A,,Clear,160,2013-08-22 13:53:00
8:53 AM,64.9,50.0,58,30.06,10.0,SSE,10.4,-,N/A,,Clear,160,2013-08-22 14:53:00
9:53 AM,70.0,52.0,53,30.04,10.0,SSE,15.0,21.9,N/A,,Clear,150,2013-08-22 15:53:00
10:53 AM,73.9,48.9,41,30.02,10.0,SSE,12.7,20.7,N/A,,Clear,150,2013-08-22 16:53:00
11:53 AM,75.9,46.0,35,30.01,10.0,SSE,5.8,-,N/A,,Clear,160,2013-08-22 17:53:00
12:53 PM,75.9,44.1,32,30.00,10.0,South,4.6,-,N/A,,Clear,180,2013-08-22 18:53:00
1:32 PM,75.2,42.8,31,30.32,10.0,Variable,4.6,-,N/A,Thunderstorm,Clear,0,2013-08-22 19:32:00
1:53 PM,80.1,50.0,35,29.97,10.0,South,19.6,24.2,N/A,,Clear,170,2013-08-22 19:53:00
2:19 PM,78.8,48.2,34,30.30,10.0,South,15.0,-,N/A,Thunderstorm,Clear,170,2013-08-22 20:19:00
2:32 PM,75.2,50.0,41,30.31,10.0,SSE,17.3,-,N/A,Thunderstorm,Partly Cloudy,160,2013-08-22 20:32:00
2:53 PM,75.0,48.9,40,29.99,10.0,South,17.3,-,N/A,,Scattered Clouds,170,2013-08-22 20:53:00
3:04 PM,75.2,48.2,38,30.30,10.0,SSW,17.3,-,N/A,Thunderstorm,Mostly Cloudy,200,2013-08-22 21:04:00
3:38 PM,71.6,48.2,43,30.33,10.0,SSW,25.3,31.1,0.00,,Overcast,200,2013-08-22 21:38:00
3:49 PM,69.8,46.4,43,30.31,10.0,South,17.3,26.5,0.00,Thunderstorm,Mostly Cloudy,190,2013-08-22 21:49:00
3:53 PM,70.0,46.0,42,30.03,10.0,SSW,18.4,26.5,0.00,Thunderstorm,Mostly Cloudy,200,2013-08-22 21:53:00
4:08 PM,68.0,48.2,49,30.33,10.0,SW,11.5,21.9,0.00,Rain-Thunderstorm,Light Rain,230,2013-08-22 22:08:00
4:24 PM,62.6,51.8,68,30.35,1.8,NW,11.5,-,0.03,Rain-Thunderstorm,Heavy Thunderstorms and Rain,320,2013-08-22 22:24:00
4:41 PM,60.8,51.8,72,30.35,1.5,SE,5.8,-,0.08,Rain,Rain,140,2013-08-22 22:41:00
4:53 PM,60.1,51.1,72,30.09,1.2,Calm,Calm,-,0.12,Rain,Rain,0,2013-08-22 22:53:00
5:05 PM,60.8,53.6,77,30.33,2.0,Calm,Calm,-,0.02,Rain,Rain,0,2013-08-22 23:05:00
5:15 PM,60.8,53.6,77,30.33,8.0,Calm,Calm,-,0.02,Rain,Light Rain,0,2013-08-22 23:15:00
5:53 PM,62.1,53.1,72,30.05,10.0,ESE,8.1,-,0.03,,Overcast,120,2013-08-22 23:53:00
6:53 PM,60.1,54.0,80,30.02,4.0,ESE,12.7,-,0.02,Rain,Light Rain,120,2013-08-23 00:53:00
7:53 PM,60.1,53.1,78,30.01,10.0,SE,4.6,-,0.00,,Overcast,130,2013-08-23 01:53:00
8:53 PM,59.0,53.1,81,29.99,10.0,Calm,Calm,-,N/A,,Scattered Clouds,0,2013-08-23 02:53:00
9:53 PM,57.9,52.0,81,29.99,10.0,Calm,Calm,-,N/A,,Clear,0,2013-08-23 03:53:00
10:53 PM,55.9,50.0,80,30.01,10.0,SSE,6.9,-,N/A,,Mostly Cloudy,160,2013-08-23 04:53:00
11:53 PM,57.0,52.0,83,29.97,10.0,South,13.8,-,N/A,,Clear,180,2013-08-23 05:53:00